Winner, SD

7:10 AM CDT on April 26, 2017 (GMT -0500)
Winner

Weather History for KICR - November, 2013

Change the Weather History Date:

Saturday, November 2, 2013

  Actual Average Record
Temperature  
Mean Temperature 47 °F 43 °F  
Max Temperature 61 °F 54 °F 80 °F (2008)
Min Temperature 33 °F 32 °F 27 °F (2011)
Degree Days  
Heating Degree Days 18 22  
Month to date heating degree days 40 43  
Since 1 July heating degree days 637 641  
Cooling Degree Days 0 0  
Month to date cooling degree days 0 0  
Year to date cooling degree days 1014 916  
Moisture  
Dew Point 26 °F    
Average Humidity 49    
Maximum Humidity 75    
Minimum Humidity 22    
Precipitation  
Precipitation 0.00 in 0.03 in 0.00 in (2017)
Month to date precipitation 0.02 0.07  
Year to date precipitation 20.75 20.70  
Sea Level Pressure  
Sea Level Pressure 30.06 in    
Wind  
Wind Speed 10 mph (SW)    
Max Wind Speed 32 mph    
Max Gust Speed 43 mph    
Visibility 10 miles    
Events      
T = Trace of Precipitation, MM = Missing Value Source: NWS Daily Summary

Daily Weather History Graph

Daily Weather History Graph

Search for Another Location

Airport or City:

Trip Planner

Search our weather history database for the weather conditions in past years. The results will help you decide how hot, cold, wet, or windy it might be!

Date:

Astronomy

Nov. 02, 2013 Rise Set
Actual Time 8:16 AM CDT 6:28 PM CDT
Civil Twilight 7:46 AM CDT 6:58 PM CDT
Nautical Twilight 7:12 AM CDT 7:32 PM CDT
Astronomical Twilight 6:39 AM CDT 8:05 PM CDT
Moon 7:14 AM CDT (11/2) 6:02 PM CDT (11/2)
Length of Visible Light 11h 12m
Length of Day
10h 12m
Waning Crescent, 1% of the Moon is Illuminated
Nov 2
Waning Crescent
Nov 3
New
Nov 9
First Quarter
Nov 17
Full
Nov 25
Last Quarter

Hourly Weather History & Observations

Time (CDT) Temp. Windchill Dew Point Humidity Pressure Visibility Wind Dir Wind Speed Gust Speed Precip Events Conditions
12:53 AM 34.0 °F 29.8 °F 27.0 °F 75% 30.13 in 10.0 mi West 4.6 mph - N/A   Clear
1:53 AM 34.0 °F 27.2 °F 27.0 °F 75% 30.14 in 10.0 mi West 8.1 mph - N/A   Clear
2:53 AM 34.0 °F 26.6 °F 27.0 °F 75% 30.15 in 10.0 mi West 9.2 mph - N/A   Clear
3:53 AM 34.0 °F 26.6 °F 27.0 °F 75% 30.15 in 10.0 mi WSW 9.2 mph - N/A   Partly Cloudy
4:53 AM 35.1 °F 28.6 °F 27.0 °F 72% 30.15 in 10.0 mi WSW 8.1 mph - N/A   Clear
5:53 AM 36.0 °F 29.6 °F 27.0 °F 70% 30.15 in 10.0 mi WSW 8.1 mph - N/A   Clear
6:53 AM 35.1 °F 27.9 °F 26.1 °F 70% 30.16 in 10.0 mi WSW 9.2 mph - N/A   Clear
7:53 AM 35.1 °F 29.3 °F 25.0 °F 67% 30.16 in 10.0 mi WSW 6.9 mph - N/A   Clear
8:53 AM 35.1 °F 29.3 °F 25.0 °F 67% 30.17 in 10.0 mi WSW 6.9 mph - N/A   Clear
9:53 AM 41.0 °F 38.0 °F 28.0 °F 60% 30.17 in 10.0 mi WSW 4.6 mph - N/A   Clear
10:53 AM 48.0 °F - 28.9 °F 48% 30.17 in 10.0 mi West 5.8 mph - N/A   Clear
11:53 AM 52.0 °F - 28.0 °F 40% 30.16 in 10.0 mi Calm Calm - N/A   Clear
12:53 PM 55.0 °F - 28.9 °F 37% 30.14 in 10.0 mi SSW 6.9 mph - N/A   Clear
1:53 PM 57.9 °F - 25.0 °F 28% 30.09 in 10.0 mi SSW 10.4 mph - N/A   Clear
2:53 PM 60.1 °F - 25.0 °F 26% 30.05 in 10.0 mi SSW 11.5 mph - N/A   Clear
3:53 PM 60.1 °F - 21.9 °F 23% 30.02 in 10.0 mi South 8.1 mph - N/A   Clear
4:53 PM 60.1 °F - 23.0 °F 24% 29.99 in 10.0 mi SSW 9.2 mph - N/A   Clear
5:53 PM 57.0 °F - 26.1 °F 30% 29.96 in 10.0 mi SSE 8.1 mph - N/A   Clear
6:53 PM 48.0 °F - 27.0 °F 44% 29.95 in 10.0 mi SE 10.4 mph - N/A   Clear
7:53 PM 46.9 °F - 26.1 °F 44% 29.93 in 10.0 mi SSE 10.4 mph - N/A   Clear
8:53 PM 46.9 °F - 26.1 °F 44% 29.92 in 10.0 mi SE 13.8 mph - N/A   Clear
9:53 PM 48.9 °F - 25.0 °F 39% 29.88 in 10.0 mi SSE 16.1 mph 24.2 mph N/A   Clear
10:53 PM 48.0 °F - 25.0 °F 41% 29.85 in 10.0 mi SSE 19.6 mph 26.5 mph N/A   Clear
11:53 PM 46.9 °F - 26.1 °F 44% 29.79 in 10.0 mi SSE 18.4 mph 31.1 mph N/A   Clear